COSMOS 1275 DEB, 13053

Orbit data source: Space-Track

COSMOS 1275 DEB, 13053 is space debris in LEO originally from a launch on Thu, 04 Jun 1981 UTC launched from the Plesetsk Missile And Space Complex (PKMTR). Debris objects in space refer to the collection of defunct objects orbiting the Earth. Examples of debris include non-operational satellites, rocket bodies, and fragments generated from explosions, collisions, or faulty payload assembly.

Loading next visibility...
Identifier
13053, 1981-053EY
Orbit
LEO
Country
Flag of CISCIS
Related business
Manufacturer
Unknown
Mission
Spacecraft
Bus & Motor
Unknown
Mass
Unknown
Launch date (UTC)
1981-06-04 (44 years ago)
Launch vehicle
Unknown
Launch site
Plesetsk Missile And Space Complex (PKMTR)
Object type
Payload
Rocket body
Debris
Shape & HBR
Unknown shape, 0.1 m
Radar Cross Section
Small (<0.1 m²)

Expand to show TLE details & history
Last TLE update: 1 day ago

TLE from 1 day ago
0 COSMOS 1275 DEB
1 13053U 81053EY  25301.29509684  .00001895  00000-0  19811-2 0  9998
2 13053  83.0755 226.8407 0120590  10.7826 111.0652 13.71602595191716
Epoch: 2025-10-28T07:04Z
TLE epoch observation values (Epoch: 2025-10-28T07:04:56.366Z)
Latitude
56.33049°
Longitude
-106.72851°
Altitude
1,036.113 km
Speed
7.323 km/s
True Right ascension
02h 25m 33s
True Declination
56° 10' 39"
Sunlit
Object was in full shadow at epoch
Visualization orbit readout
Latitude
Unknown
Longitude
Unknown
Altitude
Unknown
Speed
Unknown
Apparent Right ascension
Unknown
Apparent Declination
Unknown
Sunlit
N/A
Visualization observer readout
Local Sidereal Time
09:40:16
Azimuth
Unknown
Elevation
Unknown
Doppler factor
Unknown
Orbital elements
Apogee altitude
1,079.835 km
Perigee altitude
902.107 km
Semi-major axis
7,369.108 km
Eccentricity
0.01206
Inclination
83.0755°
RAAN
226.8407°
Arg. of periapsis
10.7826°
True anomaly
112.34766°
Mean anomaly
111.0652°
Eccentric anomaly
111.70713°
Mean motion
3.431 °/min
Orbital period
104.93 mins
BSTAR
0.0019811
Loading maneuver chart data...
Computing Atmospheric mass density...
Loading historical data...
Loading historical data...
Loading historical data...
Loading historical data...
Loading historical data...
Loading historical data...
Loading historical data...

Documentation

Showing up to 5 results
|